Home   Weather   Vienna   Past weeks
Flag for Austria

Past Weather in Vienna, Vienna, Austria — Yesterday and Last 2 Weeks

Now
66 °F

Clear.


Feels Like: 66 °F
Forecast: 85 / 61 °F
Wind: 6 mph from South

Location: Vienna Schwechat-Flughafen Airport

Current Time: Jul 19, 2019 at 12:07:26 am

Latest Report: Jul 18, 2019 at 11:20 pm


Visibility: 10 mi

Pressure: 29.95 "Hg

Humidity: 73%

Dew Point: 57 °F

Location of ViennaLocation

Past Weather in Vienna — Graph

°F

Vienna Temperature Yesterday

Maximum temperature yesterday: 79 °F (at 1:50 pm)
Minimum temperature yesterday: 59 °F (at 2:50 am)
Average temperature yesterday: 70 °F

High & Low Weather Summary for the Past Weeks

 TemperatureHumidityPressure
High95 °F (Jul 6, 3:20 pm)94% (Jul 13, 1:50 am)30.18 "Hg (Jul 13, 1:50 am)
Low52 °F (Jul 11, 4:20 am)14% (Jul 6, 4:50 pm)29.74 "Hg (Jul 6, 5:50 pm)
Average68 °F56%29.94 "Hg
* Reported Jul 3 10:20 pm — Jul 18 10:50 pm, Vienna. Weather by CustomWeather, © 2019

Note: Actual official high and low records may vary slightly from our data, if they occured in-between our weather recording intervals... More about our weather records

Advertising

Vienna Weather History for the Previous 24 Hours

Scroll right to see more
 ConditionsComfort  
Time TempWeatherWind HumidityBarometerVisibility
10:50 pm
Thu, Jul 18
66 °FClear.7 mph73%29.95 "Hg10 mi
10:20 pm68 °FClear.7 mph69%29.95 "Hg10 mi
9:50 pm73 °FPartly cloudy.6 mph57%29.92 "HgN/A
9:20 pm73 °FScattered showers. Partly cloudy.7 mph57%29.92 "HgN/A
8:50 pm75 °FPassing clouds.6 mph50%29.92 "HgN/A
8:20 pm75 °FSunny.5 mph47%29.89 "Hg10 mi
7:50 pm77 °FSunny.2 mph42%29.89 "Hg10 mi
7:20 pm77 °FSunny.1 mph36%29.89 "Hg10 mi
6:50 pm77 °FSunny.7 mph39%29.89 "Hg10 mi
6:20 pm77 °FPassing clouds.7 mph44%29.89 "HgN/A
5:50 pm79 °FPassing clouds.6 mph42%29.89 "HgN/A
5:20 pm79 °FScattered clouds.6 mph39%29.89 "HgN/A
4:50 pm79 °FScattered clouds.3 mph45%29.89 "HgN/A
4:20 pm77 °FScattered clouds.3 mph44%29.89 "HgN/A
3:50 pm75 °FScattered clouds.7 mph57%29.89 "HgN/A
3:20 pm75 °FThunderstorms. Partly sunny.7 mph57%29.89 "HgN/A
2:50 pm79 °FScattered clouds.6 mph42%29.89 "HgN/A
2:20 pm79 °FPassing clouds.5 mph42%29.92 "HgN/A
1:50 pm79 °FPassing clouds.7 mph42%29.92 "HgN/A
1:20 pm77 °FPassing clouds.7 mph44%29.92 "HgN/A
12:50 pm75 °FPassing clouds.7 mph47%29.92 "HgN/A
12:20 pm75 °FPassing clouds.6 mph50%29.92 "HgN/A
11:50 am75 °FPassing clouds.6 mph50%29.92 "HgN/A
11:20 am73 °FPassing clouds.5 mph50%29.92 "HgN/A
10:20 am72 °FPassing clouds.6 mph53%29.92 "HgN/A
9:50 am72 °FPassing clouds.2 mph57%29.92 "HgN/A
9:20 am70 °FSunny.2 mph60%29.92 "Hg10 mi
8:50 am68 °FSunny.2 mph64%29.92 "Hg10 mi
8:20 am66 °FPassing clouds.3 mph68%29.92 "HgN/A
7:50 am66 °FPassing clouds.3 mph68%29.92 "HgN/A
7:20 am64 °FSunny.2 mph73%29.92 "Hg10 mi
6:50 am61 °FSunny.5 mph83%29.92 "Hg10 mi
6:20 am61 °FSunny.5 mph77%29.89 "Hg10 mi
5:50 am59 °FPartly sunny.5 mph82%29.89 "HgN/A
5:20 am61 °FBroken clouds.6 mph77%29.89 "HgN/A
4:20 am61 °FPartly cloudy.3 mph77%29.89 "HgN/A
3:50 am61 °FPartly cloudy.6 mph83%29.89 "HgN/A
3:20 am61 °FPartly cloudy.9 mph77%29.89 "HgN/A
2:50 am59 °FPartly cloudy.7 mph88%29.89 "HgN/A
2:20 am63 °FPartly cloudy.6 mph77%29.89 "HgN/A
1:50 am63 °FPartly cloudy.7 mph77%29.89 "HgN/A
1:20 am64 °FPartly cloudy.6 mph73%29.89 "HgN/A
12:50 am64 °FPartly cloudy.3 mph73%29.89 "HgN/A
12:20 am66 °FPartly cloudy.3 mph68%29.89 "HgN/A
Weather by CustomWeather, © 2019

See weather overview